Regional Weather Roundup
Issued by NWS

Home | Current Version | Previous Version | Text Only | Print | Product List | Glossary Off
Versions: 1 2 3 4 5 6 7 8 9 10 11 12 13 14 15 16 17 18 19 20 21 22 23 24 25 26 27 28 29 30 31 32 33 34 35 36 37 38 39 40 41 42 43 44 45 46 47 48 49 50

000
ASUS45 KTFX 200610
RWRMT
MONTANA REGIONAL WEATHER ROUNDUP
NATIONAL WEATHER SERVICE GREAT FALLS MT
1100 PM MST THU JAN 19 2017

NOTE: "FAIR" INDICATES FEW OR NO CLOUDS BELOW 12000 FEET WITH NO
SIGNIFICANT WEATHER AND/OR OBSTRUCTIONS TO VISIBILITY.

MTZ001>007-043-200700-
WEST OF THE DIVIDE

CITY           SKY/WX    TMP DP  RH WIND       PRES   REMARKS
KALISPELL      FOG       23  22  96 CALM      29.56R VSB 1/4
MISSOULA       CLOUDY    33  33 100 CALM      29.59F FOG
BUTTE          CLOUDY    25  21  85 NW3       29.54S
MULLAN PASS    CLOUDY    27  23  85 SW6       29.50F WCI  20
ANACONDA         N/A     30  28  93 CALM      29.55R
DEER LODGE       N/A     34  34 100 CALM      29.58S
EUREKA           N/A     37  28  70 SW3       29.54S
HAMILTON         N/A     32  32 100 CALM      29.58S VSB 3/4
PLAINS           N/A     25  20  81 CALM      29.63  VSB 0
RONAN            N/A     34  30  85 CALM      29.64S
$$

MTZ008-052>055-200700-
SOUTHWEST MONTANA

CITY           SKY/WX    TMP DP  RH WIND       PRES   REMARKS
BOZEMAN        CLOUDY    30  27  88 E5        29.54S
DILLON         CLOUDY    33  18  53 S7        29.55S WCI  27
W YELLOWSTONE  CLOUDY    27  23  86 SW10G16   29.60S WCI  17
ENNIS          CLOUDY    32  23  69 S12       29.60F WCI  23
$$

MTZ009-010-012-014-046-048-049-054-200700-
EAST SLOPES AND CENTRAL MONTANA

CITY           SKY/WX    TMP DP  RH WIND       PRES   REMARKS
CUT BANK       CLOUDY    35  24  64 SW9       29.45R WCI  28
GREAT FALLS    CLOUDY    34  28  79 SW8       29.48S WCI  27
MALMSTROM AFB  CLOUDY    35  30  83 S6        29.49R WCI  29
HELENA         CLOUDY    33  27  78 SW3       29.53F
AUGUSTA          N/A     33  22  66 NW5       29.47S
BOWMANS CRNR     N/A     32  26  79 S8        29.47F WCI  24
CHOTEAU          N/A     34  25  69 SW6       29.48S WCI  29
CONRAD           N/A     34  29  82 SW3       29.53S
POWER          MOCLDY    33  28  80 SW12      29.46S WCI  24
RAYNESFORD     CLOUDY    41  28  59 SW14      29.48S
ULM            CLOUDY    37  29  74 MISG      29.49S
$$

MTZ011-013-016-021-045-047-050-051-200700-
NORTH CENTRAL MONTANA

CITY           SKY/WX    TMP DP  RH WIND       PRES   REMARKS
HAVRE          CLOUDY    35  32  88 SW10      29.45R WCI  27
LEWISTOWN      CLOUDY    38  30  73 W10       29.48R WCI  31
CHINOOK          N/A     37  30  75 CALM      29.44S
DENTON         DRIZZLE   38  31  74 SW12G26   29.44R WCI  31
FORT BENTON      N/A     37  30  75 MISG      29.48S
GEYSER         CLOUDY    38  29  69 W12       29.46S WCI  30
GRASS RANGE    CLOUDY    39  34  84 W7        29.44S
JUDITH GAP     CLOUDY    37  28  72 W14       29.48S WCI  28
ROY            MOCLDY    41  33  71 MISG      29.44F
STANFORD       CLOUDY    37  30  75 CALM      29.47S
WINIFRED       CLOUDY    41  31  67 MISG      29.46R
$$

MTZ017>020-022>027-061-062-200700-
NORTHEAST MONTANA

CITY           SKY/WX    TMP DP  RH WIND       PRES   REMARKS
GLASGOW        PTCLDY    27  23  85 S8        29.44R WCI  19
JORDAN           N/A     34  30  85 W5        29.45S
SIDNEY         CLOUDY    17  13  84 S5        29.44S
WOLF POINT     CLOUDY    19  15  84 SW5       29.44F
PLENTYWOOD       N/A     25  21  86 CALM      29.40S
POPLAR           N/A     21  18  86 W10       29.44F WCI  10
SCOBEY           N/A     26  19  74 CALM      29.43
$$

MTZ028>42-056>058-200700-
SOUTHCENTRAL AND SOUTHEAST MONTANA

CITY           SKY/WX    TMP DP  RH WIND       PRES   REMARKS
BAKER          CLOUDY    22  17  81 W6        29.44F WCI  14
BILLINGS       LGT RAIN  36  33  89 W12       29.52S WCI  28
LIVINGSTON     CLOUDY    38  25  59 SW22G31   29.52R WCI  27
MILES CITY     CLOUDY    21  16  81 S5        29.46F
BIG TIMBER     CLOUDY    37  27  65 W18       29.53S WCI  27
EKALAKA          N/A     32  19  58 CALM      29.48
FORSYTH          N/A     30  25  80 W7        29.47S WCI  23
HARLOWTON      CLOUDY    36  29  75 W7        29.49F WCI  30
LAUREL           N/A     33  23  67 SW7       29.55F WCI  27
$$

REGIONAL REPORTS...DAKOTAS

CITY           SKY/WX    TMP DP  RH WIND       PRES   REMARKS
WILLISTON      CLOUDY    14  12  92 CALM      29.43F
MINOT          CLOUDY    23  19  85 CALM      29.40S
DICKINSON      CLOUDY    20  16  84 W10       29.39S WCI   9
BEACH            N/A     27  23  86 W13       29.45S WCI  16
CROSBY           N/A     19  18  93 SW8       29.42S WCI   9
TIOGA            N/A     16  16 100 NW5       29.42S
WATFORD CITY     N/A     14  12  92 SW5       29.43R
BISMARCK       CLOUDY    12  10  92 NE5       29.47F
GRAND FORKS    FOG       35  32  88 S10       29.55S VSB 1   WCI  27
FARGO          CLOUDY    47  36  65 SE14      29.56F HAZE
BUFFALO SD       N/A     28  19  69 NW17      29.34F WCI  16
RAPID CITY     CLOUDY    25  17  72 NW5       29.42S
$$

REGIONAL REPORTS...WYOMING/IDAHO/WASHINGTON

CITY           SKY/WX    TMP DP  RH WIND       PRES   REMARKS
GILLETTE       CLOUDY    31  24  75 W9        29.47S WCI  23
SHERIDAN       CLOUDY    32  22  66 SW13      29.50S WCI  22
BUFFALO WY     CLOUDY    36  20  52 NW6       29.50R WCI  31
CODY           CLOUDY    35  23  61 SW5       29.52S
YELLOWSTONE LA   N/A     23  19  85 VRB5      29.60S
IDAHO FALLS    CLOUDY    30  28  92 SW8       29.66S WCI  22
SALMON         CLOUDY    23  21  93 NE3       29.61S
BOISE          CLOUDY    36  31  82 SE9       29.64F WCI  29
SPOKANE        PTCLDY    33  29  85 SE8       29.55F WCI  26
$$

REGIONAL REPORTS...ALBERTA

CITY           SKY/WX    TMP DP  RH WIND       PRES   REMARKS
EDMONTON       CLEAR     32  19  59 W5        29.24R
CALGARY        MOCLDY    32  19  59 S3        29.31S
LETHBRIDGE     MOCLDY    36  27  69 SW14G20   29.40R WCI  27
MEDICINE HAT   CLOUDY    37  28  70 S10       29.39R WCI  30
WATERTON GATE    N/A     36  19  51 SW15G23     N/A  WCI  26
MILK RIVER       N/A     34  28  80 SW9         N/A  WCI  26
ONEFOUR          N/A     39  28  65 NW15G22     N/A  WCI  31
$$

REGIONAL REPORTS...SASKATCHEWAN

CITY           SKY/WX    TMP DP  RH WIND       PRES   REMARKS
SWIFT CURRENT  CLOUDY    39  30  70 SW16      29.35S WCI  30
REGINA         PTCLDY    27  25  93 SE8       29.37S WCI  18
SASKATOON      CLOUDY    36  30  80 S6        29.29S WCI  31
CYPRESS HILLS    N/A     37  19  48 W8          N/A  WCI  31
VAL MARIE        N/A     32  30  93 SW3         N/A
ROCKGLEN         N/A     36  30  80 W13         N/A  WCI  27
ASSINIBOIA       N/A     21  21 100 SW6         N/A  WCI  14
$$



USA.gov is the U.S. government's official web portal to all federal, state and local government web resources and services.